TimeEDT,TemperatureF,Dew PointF,Humidity,Sea Level PressureIn,VisibilityMPH,Wind Direction,Wind SpeedMPH,Gust SpeedMPH,PrecipitationIn,Events,Conditions,WindDirDegrees,DateUTC
12:02 AM,35.6,30.2,81,30.14,6.0,Variable,3.5,-,0.01,Rain,Light Rain,0,2012-10-12 04:02:00
12:53 AM,34.0,32.0,92,30.20,9.0,Variable,3.5,-,0.02,Snow,Light Snow,0,2012-10-12 04:53:00
1:53 AM,34.0,30.9,89,30.23,10.0,Variable,4.6,-,N/A,,Clear,0,2012-10-12 05:53:00
2:53 AM,33.1,30.9,92,30.26,10.0,Calm,Calm,-,N/A,,Scattered Clouds,0,2012-10-12 06:53:00
3:00 AM,33.8,30.2,87,30.22,10.0,Calm,Calm,-,N/A,,Mostly Cloudy,0,2012-10-12 07:00:00
3:07 AM,33.8,30.2,87,30.22,10.0,Variable,3.5,-,N/A,,Scattered Clouds,0,2012-10-12 07:07:00
3:53 AM,33.1,30.0,89,30.28,10.0,Variable,3.5,-,N/A,,Clear,0,2012-10-12 07:53:00
4:53 AM,32.0,28.9,88,30.30,10.0,Calm,Calm,-,N/A,,Clear,0,2012-10-12 08:53:00
5:53 AM,30.0,28.0,92,30.34,10.0,West,3.5,-,N/A,,Clear,280,2012-10-12 09:53:00
6:53 AM,30.0,28.0,92,30.37,10.0,Calm,Calm,-,N/A,,Clear,0,2012-10-12 10:53:00
7:53 AM,28.0,26.1,92,30.39,10.0,Calm,Calm,-,N/A,,Clear,0,2012-10-12 11:53:00
8:53 AM,28.9,28.0,96,30.42,10.0,Calm,Calm,-,N/A,,Clear,0,2012-10-12 12:53:00
9:53 AM,34.0,30.9,89,30.44,10.0,Calm,Calm,-,N/A,,Clear,0,2012-10-12 13:53:00
10:53 AM,39.0,28.0,65,30.45,10.0,ENE,3.5,-,N/A,,Clear,60,2012-10-12 14:53:00
11:53 AM,39.9,26.1,58,30.45,10.0,Variable,3.5,-,N/A,,Scattered Clouds,0,2012-10-12 15:53:00
1:53 PM,43.0,24.1,47,30.44,10.0,WSW,9.2,-,N/A,,Scattered Clouds,250,2012-10-12 17:53:00
2:53 PM,42.1,24.1,49,30.43,10.0,South,5.8,-,N/A,,Overcast,170,2012-10-12 18:53:00
3:53 PM,45.0,23.0,42,30.41,10.0,SW,10.4,-,N/A,,Overcast,230,2012-10-12 19:53:00
4:53 PM,44.1,24.1,45,30.40,10.0,SW,5.8,-,N/A,,Mostly Cloudy,220,2012-10-12 20:53:00
6:53 PM,41.0,25.0,53,30.40,10.0,SSW,5.8,-,N/A,,Mostly Cloudy,200,2012-10-12 22:53:00
7:53 PM,37.0,26.1,65,30.40,10.0,Calm,Calm,-,N/A,,Mostly Cloudy,0,2012-10-12 23:53:00
8:53 PM,35.1,28.0,76,30.40,10.0,Calm,Calm,-,N/A,,Clear,0,2012-10-13 00:53:00
9:53 PM,34.0,30.0,85,30.38,10.0,Calm,Calm,-,N/A,,Clear,0,2012-10-13 01:53:00
10:53 PM,33.1,28.0,82,30.37,10.0,Calm,Calm,-,N/A,,Clear,0,2012-10-13 02:53:00
11:53 PM,35.1,28.9,78,30.36,10.0,South,4.6,-,N/A,,Clear,170,2012-10-13 03:53:00